Location: Unspecified
(40.6653°N, 0.0000°E)
Time: 13:50:28
(UTC+00:00)

Transit 2A - All Passes

Search period start: 05 April 2026 00:00
Search period end: 15 April 2026 00:00
Orbit: 591 x 953 km, 66.7° (Epoch: 29 March)

Date Brightness Start Highest point End Pass type
(mag) Time Alt. Az. Time Alt. Az. Time Alt. Az.
5 Apr - 00:45:09 10° S 00:51:11 49° ESE 00:57:09 10° NE visible
5 Apr - 02:28:52 10° WSW 02:34:29 33° NW 02:39:58 10° NNE visible
5 Apr - 09:32:39 10° NNW 09:37:38 35° NE 09:42:09 10° ESE daylight
5 Apr - 11:15:58 10° NW 11:20:34 31° WSW 11:24:44 10° S daylight
6 Apr - 00:09:22 10° S 00:14:55 34° ESE 00:20:26 10° NE visible
6 Apr - 01:51:52 10° SW 01:57:54 45° NW 02:03:47 10° NNE visible
6 Apr - 03:40:52 10° NW 03:42:32 11° NNW 03:44:10 10° NNW visible
6 Apr - 08:56:32 10° N 09:00:59 24° NE 09:05:03 10° E daylight
6 Apr - 10:39:14 10° NW 10:44:20 49° WSW 10:48:56 10° S daylight
6 Apr - 23:33:59 10° SSE 23:38:43 23° ESE 23:43:26 10° ENE visible
7 Apr - 01:15:06 10° SW 01:21:22 64° WNW 01:27:30 10° NNE visible
7 Apr - 03:02:14 10° WNW 03:05:38 15° NW 03:08:57 10° N visible
7 Apr - 08:20:35 10° N 08:24:13 18° NE 08:27:39 10° E daylight
7 Apr - 10:02:40 10° NNW 10:08:02 78° WSW 10:12:48 10° SSE daylight
7 Apr - 22:59:14 10° SE 23:02:36 15° ESE 23:05:56 10° ENE visible
8 Apr - 00:38:35 10° SSW 00:44:55 89° WNW 00:51:08 10° NNE visible
8 Apr - 02:24:22 10° W 02:28:48 20° NW 02:33:09 10° N visible
8 Apr - 07:44:55 10° N 07:47:23 13° NE 07:49:45 10° ENE daylight
8 Apr - 09:26:15 10° NNW 09:31:38 68° ENE 09:36:24 10° SE daylight
8 Apr - 11:11:19 10° WNW 11:13:49 14° WSW 11:16:13 10° SW daylight
9 Apr - 00:02:19 10° SSW 00:08:33 64° ESE 00:14:40 10° NE visible
9 Apr - 01:46:52 10° WSW 01:52:04 26° NW 01:57:09 10° N visible
9 Apr - 08:49:57 10° NNW 08:55:08 45° NE 08:59:46 10° SE daylight
9 Apr - 10:33:48 10° NW 10:37:44 22° WSW 10:41:24 10° SSW daylight
9 Apr - 23:26:20 10° S 23:32:14 44° ESE 23:38:03 10° NE visible
10 Apr - 01:09:40 10° WSW 01:15:25 36° NW 01:21:01 10° NNE visible
10 Apr - 08:13:46 10° NNW 08:18:31 30° NE 08:22:51 10° ESE daylight
10 Apr - 09:56:51 10° NW 10:01:34 35° WSW 10:05:52 10° S daylight
10 Apr - 22:50:38 10° SSE 22:55:59 30° ESE 23:01:15 10° NE visible
11 Apr - 00:32:44 10° SW 00:38:51 50° NW 00:44:49 10° NNE visible
11 Apr - 02:21:03 10° WNW 02:23:21 12° NW 02:25:36 10° NNW visible
11 Apr - 07:37:42 10° N 07:41:49 22° NE 07:45:39 10° E daylight
11 Apr - 09:20:10 10° NW 09:25:20 57° WSW 09:29:57 10° SSE daylight
11 Apr - 22:15:25 10° SSE 22:19:48 20° ESE 22:24:08 10° ENE visible
11 Apr - 23:56:03 10° SW 00:02:21 71° WNW 00:08:29 10° NNE visible
12 Apr - 01:42:44 10° WNW 01:46:27 16° NW 01:50:06 10° N visible
12 Apr - 07:01:49 10° N 07:05:02 16° NE 07:08:05 10° ENE daylight
12 Apr - 08:43:39 10° NNW 08:48:59 89° SW 08:53:43 10° SSE daylight
12 Apr - 21:41:04 10° SE 21:43:41 13° ESE 21:46:17 10° ENE visible
12 Apr - 23:19:35 10° SSW 23:25:55 82° ESE 23:32:05 10° NNE visible
13 Apr - 01:04:58 10° W 01:09:40 22° NW 01:14:15 10° N visible
13 Apr - 06:26:25 10° NNE 06:28:10 11° NE 06:29:52 10° NE daylight
13 Apr - 08:07:17 10° NNW 08:12:32 59° ENE 08:17:15 10° SE daylight
13 Apr - 09:51:51 10° WNW 09:54:52 16° WSW 09:57:43 10° SW daylight
13 Apr - 22:43:24 10° S 22:49:33 57° ESE 22:55:34 10° NE visible
14 Apr - 00:27:35 10° WSW 00:32:57 29° NW 00:38:11 10° N visible
14 Apr - 07:31:00 10° NNW 07:36:00 39° NE 07:40:30 10° ESE daylight
14 Apr - 09:14:34 10° NW 09:18:44 25° WSW 09:22:36 10° SSW daylight
14 Apr - 22:07:30 10° S 22:13:15 38° ESE 22:18:54 10° NE visible
